Location: Unspecified
(0.0000°N, 0.0000°E)
Time: 13:48:27
(UTC+00:00)

JUGNU - Pass Details

Date: 19 February 2020
Orbit: 836 x 864 km, 20.0° (Epoch: 01 April)

Event Time Altitude Azimuth Distance (km) Brightness Sun altitude
Rises 18:27:39 0° 309° (NW) 3,369 ? -3.4°
Reaches altitude 10° 18:30:35 10° 321° (NW) 2,433 ? -4.1°
Maximum altitude 18:35:26 27° 18° (NNE) 1,551 ? -5.3°
Drops below altitude 10° 18:40:17 10° 74° (ENE) 2,432 ? -6.5°
Enters shadow 18:40:56 - 78° (ENE) 2,629 ? -6.6°
